Location: Allisons_Woods
(35.8920°N, 81.8170°W)
Time: 01:48:38
(UTC-04:00)

Daily predictions for brighter satellites

Satellite Brightness Start Highest point End
(mag) Time Altitude Azimuth Time Altitude Azimuth Time Altitude Azimuth
USA 267 4.4 00:08:37 10° NNE 00:14:33 39° NW 00:18:21 21° W
CZ-4C R/B 4.1 00:15:43 23° NW 00:15:43 23° NW 00:20:22 10° N
Cosmos 1943 Rocket 4.1 00:15:11 10° NNW 00:17:25 25° NNW 00:17:25 25° NNW
USA 234 4.3 00:48:09 39° NNW 00:48:09 39° NNW 00:52:14 10° NW
Cosmos 1980 Rocket 4.2 02:36:56 10° N 02:41:09 21° ENE 02:41:38 21° ENE
Cosmos 1697 Rocket 4.4 02:38:06 10° N 02:41:19 29° NNE 02:41:19 29° NNE
Cosmos 2082 Rocket 3.8 02:52:26 31° NNE 02:52:26 31° NNE 02:55:18 10° NNE
Resurs 1-4 Rocket 3.8 02:55:55 10° NNE 02:58:45 28° NE 02:58:45 28° NE
SL-16 R/B 2.9 03:22:57 62° NNE 03:22:57 62° NNE 03:28:22 10° N
Cosmos 1833 Rocket 4.1 03:25:13 32° NNW 03:25:13 32° NNW 03:28:34 10° N
USA 238 DEB 4.2 03:34:29 48° ESE 03:34:31 48° ESE 03:41:07 10° NE
USA 238 4.2 03:34:35 48° ESE 03:34:38 48° ESE 03:41:13 10° NE
ARIANE 5 R/B 3.4 03:34:28 10° NNE 03:38:33 48° NE 03:38:33 48° NE
Cosmos 1634 Rocket 4.4 03:50:23 53° NW 03:50:23 53° NW 03:55:27 10° N
Cosmos 2279 Rocket 3.8 04:01:16 84° W 04:01:18 84° W 04:07:35 10° N
Lacrosse 5 rocket 4.0 04:06:15 12° NNW 04:06:15 12° NNW 04:07:36 10° N
Cosmos 724 4.3 04:06:59 67° NW 04:06:59 67° NW 04:12:28 10° NNE
IRS-1D 4.2 04:02:51 10° N 04:06:52 46° NNW 04:06:52 46° NNW
CZ-2D R/B 2.9 04:03:20 10° N 04:07:18 39° NW 04:07:18 39° NW
Cosmos 841 Rocket 3.7 04:09:51 61° ESE 04:09:57 62° ESE 04:15:04 10° NNE
Cosmos 292 Rocket 4.4 04:13:01 48° ESE 04:13:15 48° ESE 04:17:53 10° NNE
Cosmos 2026 Rocket 4.1 04:07:09 10° NNW 04:12:54 56° WNW 04:12:54 56° WNW
ATLAS 3B R/B 2.7 04:17:59 56° SSW 04:19:42 85° ESE 04:26:43 10° NNE
Cosmos 540 Rocket 4.4 04:20:46 35° SE 04:22:11 43° ESE 04:27:02 10° NNE
ADEOS II 2.7 04:18:44 10° NNE 04:23:52 52° E 04:25:40 36° SSE
ADEOS 3.4 04:18:51 10° NNE 04:24:05 89° ESE 04:24:33 75° SSW
Cosmos 1980 Rocket 3.1 04:19:59 10° NNW 04:23:19 34° NW 04:23:19 34° NW
Meteor 1-21 4.1 04:26:27 64° SSW 04:27:24 88° W 04:33:02 10° N
NOSS 3-2 (A) 3.5 04:26:27 49° S 04:27:55 65° ESE 04:34:10 10° NE
Helios 1A Rocket 3.8 04:28:37 10° N 04:31:37 40° NNW 04:31:37 40° NNW
Cosmos 2082 Rocket 4.2 04:34:17 13° NW 04:34:27 13° NW 04:37:00 10° NNW
Cosmos 44 3.8 04:29:29 10° NNW 04:34:45 69° ENE 04:40:07 10° SE
Cosmos 1763 Rocket 3.7 04:35:12 51° WNW 04:35:17 51° WNW 04:40:28 10° N
Timation 2 Rocket 3.9 04:37:33 51° WSW 04:38:37 58° WNW 04:44:31 10° NNE
CZ-2D R/B 3.9 04:35:48 10° N 04:39:14 50° NW 04:39:14 50° NW
CENTAUR R/B 4.4 04:35:40 10° SSE 04:39:55 21° ESE 04:44:32 10° ENE
SL-16 R/B 2.5 04:34:19 10° NNW 04:39:58 68° ENE 04:45:35 10° SSE
Resurs 1-4 Rocket 3.6 04:36:26 10° NNW 04:39:50 22° WNW 04:39:50 22° WNW
Okean O Rocket 4.4 04:40:45 10° ENE 04:42:38 13° E 04:44:31 10° ESE
USA 215 3.3 04:39:06 10° NE 04:45:37 70° SE 04:48:37 34° SSW
UNKNOWN OBJECT B 3.7 04:42:53 10° N 04:45:34 35° NW 04:45:34 35° NW
PSLV R/B 4.3 04:48:52 39° ENE 04:48:52 39° ENE 04:50:53 10° ENE
DNEPR-1 R/B 3.3 04:47:37 73° SW 04:48:00 83° WNW 04:52:27 10° NNE
Transit 2A Rocket 4.5 04:43:37 10° NNW 04:47:34 61° WNW 04:47:34 61° WNW
Cosmos 2266 Rocket 3.9 04:42:50 10° N 04:48:58 88° E 04:55:09 10° S
Delta 2 Rocket 4.4 04:49:05 43° SSW 04:50:26 52° SSE 04:55:53 10° E
Cosmos 1470 4.1 04:48:16 10° N 04:52:03 40° E 04:55:47 10° SSE
Cosmos 2322 Rocket 2.1 04:49:05 10° NNW 04:54:45 86° ENE 05:00:21 10° SSE
Cosmos 1655 Rocket 4.5 04:49:16 10° NNW 04:55:08 40° W 04:56:24 36° WSW
Cosmos 1378 3.4 04:55:17 40° SSE 04:56:25 65° E 05:00:09 10° NNE
SEDSat Delta rocket 4.1 04:55:32 38° WSW 04:57:45 56° S 05:04:21 10° ESE
CZ-4B R/B 4.5 04:54:57 10° NNE 04:58:40 32° E 05:02:13 10° SSE
PSLV R/B 4.3 04:55:23 10° NNE 04:59:28 49° E 05:02:26 17° S
Cosmos 1833 4.3 04:58:42 25° S 05:02:10 76° ESE 05:07:57 10° NNE
Meteor 2-11 Rocket 4.4 04:59:07 29° SSW 05:02:22 68° W 05:08:30 10° N
Cosmos 1707 3.3 05:01:35 23° SSE 05:03:50 57° E 05:07:40 10° NNE
Cosmos 1937 Rocket 3.9 05:00:44 10° NW 05:05:28 37° W 05:05:51 36° WSW
SL-16 R/B 4.2 05:08:01 14° WNW 05:08:01 14° WNW 05:09:53 10° NW
Aureole 2 Rocket 4.2 05:02:57 10° N 05:06:25 35° ENE 05:09:38 10° SE
Cosmos 44 Rocket 3.4 05:02:52 10° NNW 05:08:03 89° WSW 05:13:15 10° SSE
Cosmos 1125 Rocket 4.4 05:04:38 10° N 05:09:50 52° ENE 05:14:58 10° SE
Cosmos 1812 Rocket 3.8 05:06:45 10° N 05:11:14 73° E 05:15:38 10° SSE
Cosmos 1602 Rocket 3.6 05:11:21 37° SW 05:12:45 55° W 05:17:01 10° N
ERBS 2.2 05:13:18 52° SSW 05:14:02 85° SE 05:17:26 10° NE
Cosmos 2228 4.5 05:11:18 10° NW 05:13:35 21° WNW 05:13:35 21° WNW
Cosmos 2058 Rocket 4.3 05:13:39 10° NW 05:16:45 24° WNW 05:16:45 24° WNW
ARIANE 5 R/B 4.3 05:15:12 10° NNW 05:18:12 16° WNW 05:18:54 15° WNW
Cosmos 1626 Rocket 4.2 05:23:38 29° WSW 05:24:49 34° WNW 05:28:47 10° NNW
ATLAS CENTAUR R/B 3.1 05:22:36 10° NNW 05:26:49 39° NE 05:31:14 10° SE
MOS 1-B 4.4 05:21:36 10° NNE 05:27:27 86° ESE 05:33:15 10° SSW
Cosmos 372 Rocket 4.0 05:23:52 10° NNW 05:29:06 86° ENE 05:34:16 10° SSE
PSLV R/B 3.8 05:27:08 10° NNE 05:30:57 79° ESE 05:34:40 10° S
Cosmos 1953 2.6 05:27:47 10° NNW 05:31:41 46° W 05:35:21 11° SSW
SJ 16-02 1.2 05:28:09 10° NNW 05:32:34 75° WSW 05:36:57 10° S
Cosmos 1400 Rocket 4.4 05:29:31 10° SSE 05:33:04 34° E 05:36:42 10° NNE
Cosmos 2322 4.3 05:33:14 10° NNW 05:38:54 62° ENE 05:44:32 10° SSE
Cosmos 1238 Rocket 4.1 05:41:05 10° SSW 05:47:29 69° W 05:54:12 10° N
Cosmos 2292 Rocket 3.0 05:54:24 10° N 05:57:46 70° E 06:00:42 10° SSE
CZ-4B R/B 3.9 05:53:57 10° NNE 05:57:49 80° ESE 06:01:51 10° S
NOSS 3-2 (C) 4.2 05:57:40 12° WSW 06:02:40 37° NW 06:08:38 10° NNE
Cosmos 1553 Rocket 4.1 05:56:41 10° SSW 06:03:03 69° W 06:09:27 10° N
ADEOS II 3.7 05:59:43 10° NNW 06:03:07 18° WNW 06:06:30 10° WSW
Meteor 2-5 Rocket 3.7 05:59:05 10° SSW 06:04:32 62° W 06:10:05 10° N
Cosmos 2360 Rocket 2.3 06:01:26 10° NNW 06:06:55 54° WSW 06:12:22 10° S
Cosmos-2242 3.3 06:05:29 10° N 06:09:45 73° E 06:13:59 10° SSE
ATLAS 3B R/B 4.2 06:06:01 10° W 06:11:10 21° NW 06:16:13 10° N
Cosmos 2219 3.4 06:07:16 10° SSW 06:12:58 83° ESE 06:18:44 10° NNE
Cosmos 1825 Rocket 4.3 06:11:09 10° SW 06:15:00 32° WNW 06:18:53 10° NNW
H-II Stage 2 4.5 06:12:24 10° WSW 06:17:50 59° SSE 07:02:07 10° E
Centaur D AC-28 3.9 05:51:29 10° WSW 06:17:56 52° S 06:23:03 10° ESE
CZ-2C R/B 3.9 06:14:21 10° NNE 06:18:40 37° E 06:22:55 10° SSE
Okean O Rocket 1.9 06:15:02 10° N 06:19:13 47° WNW 06:23:21 10° SSW
